• In Uzbekistan
  • List of Countries
  • For 7 days
  • Water Temperature
  • Satellite Maps
  • Weather Map
  • Weather Widgets
  • user-avatar
    Login

    Hourly Weather Edinburgh

    Today, 22 June, Friday

    Time Temperature Precipitation Wind Pressure Humidity
    00:00 +7°C° 0 mm 3 mps 771 mmHg 94%
    01:00 +7°C° 0 mm 3 mps 771 mmHg 94%
    02:00 +7°C° 0 mm 3 mps 771 mmHg 95%
    03:00 +5°C° 0 mm 3 mps 771 mmHg 95%
    04:00 +7°C° 0 mm 3 mps 771 mmHg 92%
    05:00 +8°C° 0 mm 3 mps 771 mmHg 89%
    06:00 +10°C° 0 mm 3 mps 772 mmHg 86%
    07:00 +11°C° 0 mm 3 mps 772 mmHg 80%
    08:00 +12°C° 0 mm 3 mps 771 mmHg 74%
    09:00 +14°C° 0 mm 3 mps 771 mmHg 68%
    10:00 +16°C° 0 mm 3 mps 771 mmHg 66%
    11:00 +17°C° 0 mm 4 mps 771 mmHg 64%
    12:00 +18°C° 0 mm 4 mps 771 mmHg 62%
    13:00 +18°C° 0 mm 4 mps 771 mmHg 63%
    14:00 +17°C° 0 mm 5 mps 771 mmHg 64%
    15:00 +17°C° 0 mm 5 mps 771 mmHg 65%
    16:00 +17°C° 0 mm 5 mps 771 mmHg 67%
    17:00 +16°C° 0 mm 5 mps 770 mmHg 70%
    18:00 +17°C° 0 mm 4 mps 770 mmHg 72%
    19:00 +14°C° 0 mm 4 mps 770 mmHg 77%
    20:00 +12°C° 0 mm 3 mps 770 mmHg 82%
    21:00 +11°C° 0 mm 3 mps 770 mmHg 87%
    22:00 +10°C° 0 mm 3 mps 770 mmHg 90%
    23:00 +9°C° 0 mm 3 mps 770 mmHg 93%

    Tomorrow, 23 June, Saturday

    Time Temperature Precipitation Wind Pressure Humidity
    00:00 +8°C° 0 mm 3 mps 770 mmHg 96%
    01:00 +8°C° 0 mm 3 mps 770 mmHg 96%
    02:00 +8°C° 0 mm 3 mps 770 mmHg 97%
    03:00 +8°C° 0 mm 2 mps 770 mmHg 97%
    04:00 +9°C° 0 mm 3 mps 769 mmHg 95%
    05:00 +9°C° 0 mm 3 mps 769 mmHg 93%
    06:00 +10°C° 0 mm 3 mps 769 mmHg 91%
    07:00 +11°C° 0 mm 3 mps 769 mmHg 85%
    08:00 +13°C° 0 mm 4 mps 769 mmHg 80%
    09:00 +14°C° 0 mm 4 mps 769 mmHg 75%
    10:00 +15°C° 0 mm 4 mps 769 mmHg 72%
    11:00 +17°C° 0 mm 4 mps 769 mmHg 69%
    12:00 +17°C° 0 mm 5 mps 769 mmHg 66%
    13:00 +18°C° 0 mm 4 mps 768 mmHg 67%
    14:00 +18°C° 0 mm 4 mps 768 mmHg 67%
    15:00 +18°C° 0 mm 4 mps 768 mmHg 67%
    16:00 +18°C° 0 mm 4 mps 768 mmHg 69%
    17:00 +17°C° 0 mm 4 mps 768 mmHg 71%
    18:00 +17°C° 0 mm 3 mps 768 mmHg 73%
    19:00 +16°C° 0 mm 3 mps 768 mmHg 78%
    20:00 +14°C° 0 mm 2 mps 768 mmHg 82%
    21:00 +12°C° 0 mm 2 mps 768 mmHg 87%
    22:00 +12°C° 0 mm 2 mps 768 mmHg 88%
    23:00 +10°C° 0 mm 2 mps 768 mmHg 89%

    Day after tomorrow, 24 June, Sunday

    Time Temperature Precipitation Wind Pressure Humidity
    00:00 +9°C° 0 mm 2 mps 768 mmHg 90%
    01:00 +9°C° 0 mm 2 mps 768 mmHg 90%
    02:00 +8°C° 0 mm 2 mps 767 mmHg 89%
    03:00 +8°C° 0 mm 2 mps 767 mmHg 89%
    04:00 +9°C° 0 mm 2 mps 767 mmHg 86%
    05:00 +10°C° 0 mm 2 mps 767 mmHg 84%
    06:00 +12°C° 0 mm 2 mps 767 mmHg 81%
    07:00 +14°C° 0 mm 2 mps 767 mmHg 75%
    08:00 +15°C° 0 mm 2 mps 767 mmHg 69%
    09:00 +17°C° 0 mm 3 mps 767 mmHg 64%
    10:00 +18°C° 0 mm 3 mps 767 mmHg 62%
    11:00 +19°C° 0 mm 3 mps 767 mmHg 60%
    12:00 +20°C° 0 mm 3 mps 766 mmHg 59%
    13:00 +20°C° 0 mm 3 mps 766 mmHg 59%
    14:00 +21°C° 0 mm 3 mps 766 mmHg 58%
    15:00 +21°C° 0 mm 3 mps 766 mmHg 58%
    16:00 +20°C° 0 mm 3 mps 766 mmHg 60%
    17:00 +20°C° 0 mm 3 mps 766 mmHg 63%
    18:00 +19°C° 0 mm 3 mps 766 mmHg 65%
    19:00 +18°C° 0 mm 2 mps 766 mmHg 69%
    20:00 +16°C° 0 mm 2 mps 766 mmHg 73%
    21:00 +14°C° 0 mm 1 mps 767 mmHg 78%
    22:00 +13°C° 0 mm 1 mps 767 mmHg 78%
    23:00 +12°C° 0 mm 1 mps 767 mmHg 78%

    25 June, Monday

    Time Temperature Precipitation Wind Pressure Humidity
    00:00 +12°C° 0 mm 1 mps 767 mmHg 79%
    01:00 +12°C° 0 mm 1 mps 767 mmHg 79%
    02:00 +11°C° 0 mm 1 mps 767 mmHg 79%
    03:00 +11°C° 0 mm 1 mps 766 mmHg 79%
    04:00 +13°C° 0 mm 1 mps 766 mmHg 80%
    05:00 +14°C° 0 mm 1 mps 766 mmHg 81%
    06:00 +15°C° 0 mm 1 mps 766 mmHg 81%
    07:00 +17°C° 0 mm 2 mps 767 mmHg 79%
    08:00 +19°C° 0 mm 2 mps 767 mmHg 76%
    09:00 +20°C° 0 mm 2 mps 767 mmHg 74%
    10:00 +21°C° 0 mm 2 mps 767 mmHg 70%
    11:00 +23°C° 0 mm 2 mps 767 mmHg 66%
    12:00 +24°C° 0 mm 3 mps 767 mmHg 62%
    13:00 +24°C° 0 mm 3 mps 767 mmHg 61%
    14:00 +24°C° 0 mm 3 mps 767 mmHg 60%
    15:00 +24°C° 0 mm 3 mps 767 mmHg 59%
    16:00 +24°C° 0 mm 2 mps 767 mmHg 61%
    17:00 +24°C° 0 mm 2 mps 767 mmHg 63%
    18:00 +23°C° 0 mm 2 mps 767 mmHg 66%
    19:00 +21°C° 0 mm 1 mps 767 mmHg 69%
    20:00 +19°C° 0 mm 1 mps 768 mmHg 72%
    21:00 +16°C° 0 mm 1 mps 768 mmHg 75%
    22:00 +16°C° 0 mm 1 mps 768 mmHg 75%
    23:00 +15°C° 0 mm 1 mps 768 mmHg 75%

    26 June, Tuesday

    Time Temperature Precipitation Wind Pressure Humidity
    00:00 +15°C° 0 mm 1 mps 767 mmHg 75%
    01:00 +14°C° 0 mm 1 mps 767 mmHg 77%
    02:00 +14°C° 0 mm 1 mps 767 mmHg 78%
    03:00 +14°C° 0 mm 1 mps 767 mmHg 79%
    04:00 +15°C° 0 mm 1 mps 767 mmHg 79%
    05:00 +16°C° 0 mm 1 mps 767 mmHg 79%
    06:00 +18°C° 0 mm 1 mps 767 mmHg 79%
    07:00 +19°C° 0 mm 1 mps 767 mmHg 76%
    08:00 +21°C° 0 mm 1 mps 767 mmHg 72%
    09:00 +22°C° 0 mm 1 mps 767 mmHg 69%
    10:00 +23°C° 0 mm 1 mps 767 mmHg 67%
    11:00 +24°C° 0 mm 1 mps 767 mmHg 64%
    12:00 +25°C° 0 mm 1 mps 767 mmHg 62%
    13:00 +25°C° 0 mm 1 mps 767 mmHg 63%
    14:00 +25°C° 0 mm 1 mps 767 mmHg 63%
    15:00 +25°C° 0 mm 1 mps 767 mmHg 64%
    16:00 +25°C° 0 mm 1 mps 766 mmHg 68%
    17:00 +25°C° 0 mm 1 mps 766 mmHg 73%
    18:00 +24°C° 0 mm 1 mps 766 mmHg 77%
    19:00 +23°C° 0 mm 1 mps 766 mmHg 82%
    20:00 +22°C° 0 mm 1 mps 766 mmHg 86%
    21:00 +20°C° 0 mm 1 mps 766 mmHg 91%
    22:00 +20°C° 0 mm 1 mps 766 mmHg 92%
    23:00 +19°C° 0 mm 1 mps 766 mmHg 92%

    27 June, Wednesday

    Time Temperature Precipitation Wind Pressure Humidity
    00:00 +18°C° 0 mm 1 mps 766 mmHg 93%
    01:00 +18°C° 0 mm 1 mps 766 mmHg 93%
    02:00 +16°C° 0 mm 1 mps 766 mmHg 93%
    03:00 +16°C° 0 mm 2 mps 766 mmHg 92%
    04:00 +16°C° 0 mm 2 mps 766 mmHg 90%
    05:00 +17°C° 0 mm 2 mps 766 mmHg 88%
    06:00 +17°C° 0 mm 2 mps 766 mmHg 86%
    07:00 +19°C° 0 mm 2 mps 766 mmHg 80%
    08:00 +20°C° 0 mm 2 mps 766 mmHg 74%
    09:00 +23°C° 0 mm 2 mps 766 mmHg 68%
    10:00 +24°C° 0 mm 2 mps 766 mmHg 65%
    11:00 +25°C° 0 mm 2 mps 765 mmHg 62%
    12:00 +26°C° 0 mm 3 mps 765 mmHg 59%
    13:00 +26°C° 0 mm 3 mps 765 mmHg 59%
    14:00 +26°C° 0 mm 3 mps 765 mmHg 59%
    15:00 +27°C° 0 mm 3 mps 765 mmHg 59%
    16:00 +26°C° 0 mm 3 mps 765 mmHg 63%
    17:00 +26°C° 0 mm 3 mps 765 mmHg 66%
    18:00 +25°C° 0 mm 3 mps 764 mmHg 69%
    19:00 +23°C° 0 mm 2 mps 765 mmHg 75%
    20:00 +20°C° 0 mm 2 mps 765 mmHg 80%
    21:00 +18°C° 0 mm 2 mps 765 mmHg 86%
    22:00 +17°C° 0 mm 2 mps 765 mmHg 87%
    23:00 +16°C° 0 mm 2 mps 765 mmHg 88%
    Show more